TimeMDT,TemperatureF,Dew PointF,Humidity,Sea Level PressureIn,VisibilityMPH,Wind Direction,Wind SpeedMPH,Gust SpeedMPH,PrecipitationIn,Events,Conditions,WindDirDegrees,DateUTC
12:53 AM,73.0,61.0,66,29.85,9.0,South,11.5,-,N/A,,Clear,180,2013-08-20 06:53:00
1:53 AM,70.0,60.1,71,29.85,8.0,Calm,Calm,-,N/A,,Clear,0,2013-08-20 07:53:00
2:53 AM,66.0,60.1,81,29.84,7.0,East,4.6,-,N/A,,Clear,100,2013-08-20 08:53:00
3:53 AM,63.0,60.1,90,29.84,6.0,East,6.9,-,N/A,,Clear,100,2013-08-20 09:53:00
4:53 AM,62.1,59.0,90,29.83,6.0,East,6.9,-,N/A,,Clear,100,2013-08-20 10:53:00
5:53 AM,59.0,57.0,93,29.85,5.0,ENE,3.5,-,N/A,,Clear,70,2013-08-20 11:53:00
6:53 AM,59.0,57.0,93,29.89,3.0,Calm,Calm,-,N/A,,Clear,0,2013-08-20 12:53:00
7:53 AM,66.9,60.1,79,29.89,4.0,Calm,Calm,-,N/A,,Haze,0,2013-08-20 13:53:00
8:53 AM,72.0,61.0,68,29.89,6.0,Calm,Calm,-,N/A,,Haze,0,2013-08-20 14:53:00
9:53 AM,80.1,63.0,56,29.88,0.2,Calm,Calm,-,N/A,,Haze,0,2013-08-20 15:53:00
10:02 AM,80.6,62.6,54,30.03,2.0,Calm,Calm,-,N/A,,Haze,0,2013-08-20 16:02:00
10:09 AM,82.4,62.6,51,30.03,-9999.0,Calm,Calm,-,N/A,,Clear,0,2013-08-20 16:09:00
10:53 AM,86.0,60.1,41,29.86,10.0,SW,4.6,-,N/A,,Clear,230,2013-08-20 16:53:00
11:53 AM,89.1,62.1,40,29.85,9.0,East,5.8,-,N/A,,Clear,100,2013-08-20 17:53:00
12:53 PM,91.0,60.1,35,29.83,10.0,Variable,5.8,-,N/A,,Clear,0,2013-08-20 18:53:00
1:53 PM,93.9,55.0,27,29.81,10.0,SE,5.8,-,N/A,,Clear,140,2013-08-20 19:53:00
2:53 PM,97.0,55.0,24,29.79,10.0,East,6.9,-,N/A,,Clear,80,2013-08-20 20:53:00
3:53 PM,97.0,50.0,20,29.77,10.0,SE,10.4,19.6,N/A,,Partly Cloudy,140,2013-08-20 21:53:00
4:53 PM,96.1,48.0,19,29.77,10.0,SSE,10.4,-,N/A,,Partly Cloudy,150,2013-08-20 22:53:00
5:53 PM,93.9,46.9,20,29.77,10.0,SE,10.4,-,N/A,,Partly Cloudy,140,2013-08-20 23:53:00
6:53 PM,91.9,53.1,27,29.77,10.0,SSE,17.3,21.9,N/A,,Clear,160,2013-08-21 00:53:00
7:53 PM,87.1,57.0,36,29.79,10.0,SSE,17.3,25.3,N/A,,Clear,150,2013-08-21 01:53:00
8:53 PM,84.0,57.9,41,29.81,10.0,SSE,16.1,25.3,N/A,,Clear,150,2013-08-21 02:53:00
9:53 PM,82.0,57.9,44,29.81,10.0,SSE,17.3,24.2,N/A,,Partly Cloudy,160,2013-08-21 03:53:00
10:53 PM,80.1,57.9,47,29.80,10.0,SSE,15.0,-,N/A,,Scattered Clouds,160,2013-08-21 04:53:00
11:53 PM,78.1,57.0,48,29.78,10.0,SSE,17.3,-,N/A,,Partly Cloudy,160,2013-08-21 05:53:00